User: anonymous   Login
Location: Rounton
(54.4000°N, 1.3500°W)
Time: 03:35:58
(UTC+00:00)
Language:

Courier 1B - Orbit

View from above orbital plane
View from above orbital plane
View from above satellite
View from above satellite

Ground track
Ground track

The orbit data is extracted from the following two-line orbital elements,

1 00058U 60013A   24053.56058311  .00000105  00000-0  33794-4 0  9992
2 00058  28.3266 110.3937 0164964  45.8161 315.5812 13.46369059120016
Epoch (UTC): 22 February 2024 13:27:14
Eccentricity: 0.0164964
inclination: 28.3266°
perigee height: 962 km
apogee height: 1209 km
right ascension of ascending node: 110.3937°
argument of perigee: 45.8161°
revolutions per day: 13.46369059
mean anomaly at epoch: 315.5812°
orbit number at epoch: 12001

The dashed part of the orbit path shows where the satellite is in the earth's shadow,  

DLR